XIAOXIANG-2 (43155 NORAD) Tracking and Keplerian Element Data

This shows tracking and keplerian element data for the satellite.

Feedback or suggestion? Click here.




ElementValue
Catalog43155
NameXIAOXIANG-2
Epoch Orbit12124
Epoch Day92.15764403
Epoch Year2020
RAAN163.1991
Inclination97.4525
Eccentricity0.0019027
Argument of Perigee57.7691
Mean Anonmoly25.8205
Mean Motion15.11519836
Decay Rate3.36E-06
L11 43155U 18008A 20092.15764403 .00000336 00000-0 23491-4 0 9993
L22 43155 97.4525 163.1991 0019027 57.7691 25.8205 15.11519836121248

Live tracking and technical data element details for XIAOXIANG-2 (NORAD 43155). XIAOXIANG-2 can be tracked NOW for your location showing map with azimuth and elevation plus other details from your city location.

Track the satellite on the map from your city or location and see movement details for azimuth, elevation, latitude, longitude, range, height, and movement on the map or in text.







IsCatalogInMostPopularTable: catalog: 43155, numindb: 337
Update: records affected: 1



GetName: 43155 XIAOXIANG-2

Hit Count: updated at: Fri, 03 Apr 2020 07:06:32 GMT